Cyclone, PA

3:56 PM EDT on September 27, 2016 (GMT -0400)
Bradford Regional

Weather History for KBFD - November, 2012

Change the Weather History Date:

Saturday, November 24, 2012

  Actual Average Record
Temperature  
Mean Temperature 28 °F 34 °F  
Max Temperature 28 °F 41 °F 63 °F (2014)
Min Temperature 27 °F 26 °F 5 °F (2000)
Degree Days  
Heating Degree Days 38 27  
Month to date heating degree days 535  
Since 1 July heating degree days 1528  
Cooling Degree Days 0 0  
Month to date cooling degree days 0  
Year to date cooling degree days 193  
Moisture  
Dew Point 22 °F    
Average Humidity 77    
Maximum Humidity 85    
Minimum Humidity 64    
Precipitation  
Precipitation 0.00 in 0.13 in 0.71 in (1970)
Month to date precipitation 2.97  
Year to date precipitation 40.27  
Sea Level Pressure  
Sea Level Pressure 29.83 in    
Wind  
Wind Speed 13 mph (West)    
Max Wind Speed 20 mph    
Max Gust Speed 32 mph    
Visibility 3 miles    
Events Fog , Snow    
T = Trace of Precipitation, MM = Missing Value Source: NWS Daily Summary

Daily Weather History Graph

Daily Weather History Graph

Search for Another Location

Airport or City:

Trip Planner

Search our weather history database for the weather conditions in past years. The results will help you decide how hot, cold, wet, or windy it might be!

Date:

Astronomy

Nov. 24, 2012 Rise Set
Actual Time 7:15 AM EST 4:47 PM EST
Civil Twilight 6:44 AM EST 5:17 PM EST
Nautical Twilight 6:10 AM EST 5:52 PM EST
Astronomical Twilight 5:37 AM EST 6:25 PM EST
Moon 2:33 PM EST (11/24) 3:27 AM EST (11/24)
Length of Visible Light 10h 33m
Length of Day
9h 32m
Waxing Gibbous, 87% of the Moon is Illuminated
Nov 24
Waxing Gibbous
Nov 28
Full
Dec 6
Last Quarter
Dec 13
New
Dec 20
First Quarter

Hourly Weather History & Observations

Time (EST) Temp. Windchill Dew Point Humidity Pressure Visibility Wind Dir Wind Speed Gust Speed Precip Events Conditions
12:14 AM 28.9 °F 18.6 °F 21.9 °F 75% 29.78 in 8.0 mi West 12.7 mph 20.7 mph 0.00 in Snow Light Snow
12:51 AM 28.4 °F 19.7 °F 23.0 °F 80% 29.77 in 1.8 mi West 9.2 mph 20.7 mph 0.00 in Snow Light Snow
12:53 AM 28.9 °F 19.2 °F 23.0 °F 78% 29.81 in 1.5 mi West 11.5 mph 20.7 mph 0.00 in Snow Light Snow
1:05 AM 28.9 °F 19.8 °F 23.0 °F 78% 29.76 in 2.0 mi West 10.4 mph 17.3 mph 0.00 in Snow Light Snow
1:15 AM 28.0 °F 18.6 °F 23.0 °F 81% 29.76 in 1.8 mi West 10.4 mph - 0.00 in Snow Light Snow
1:19 AM 28.0 °F 18.1 °F 23.0 °F 81% 29.76 in 2.0 mi West 11.5 mph 18.4 mph 0.00 in Snow Light Snow
1:25 AM 28.0 °F 18.6 °F 23.0 °F 81% 29.76 in 1.8 mi West 10.4 mph 18.4 mph 0.00 in Snow Light Snow
1:53 AM 28.9 °F 18.6 °F 23.0 °F 78% 29.81 in 3.0 mi West 12.7 mph - 0.00 in Snow Light Snow
2:15 AM 28.9 °F 18.6 °F 21.9 °F 75% 29.77 in 7.0 mi West 12.7 mph 23.0 mph 0.00 in Snow Light Snow
2:27 AM 28.9 °F 17.7 °F 23.0 °F 78% 29.77 in 2.5 mi West 15.0 mph 23.0 mph 0.00 in Snow Light Snow
2:34 AM 28.9 °F 18.6 °F 21.9 °F 75% 29.77 in 6.0 mi West 12.7 mph 23.0 mph 0.00 in Snow Light Snow
3:53 AM 28.0 °F 17.5 °F 21.9 °F 78% 29.80 in 8.0 mi West 12.7 mph - 0.00 in Snow Light Snow
4:41 AM 28.9 °F 18.2 °F 19.9 °F 69% 29.77 in 10.0 mi West 13.8 mph 21.9 mph 0.00 in   Overcast
4:53 AM 28.9 °F 18.2 °F 19.9 °F 69% 29.81 in 10.0 mi West 13.8 mph 23.0 mph 0.00 in   Overcast
5:15 AM 28.9 °F 16.9 °F 19.9 °F 69% 29.78 in 10.0 mi WNW 17.3 mph 20.7 mph 0.00 in   Overcast
5:53 AM 28.9 °F 19.2 °F 18.0 °F 64% 29.83 in 10.0 mi West 11.5 mph - 0.00 in Snow Light Snow
6:35 AM 28.9 °F 16.5 °F 19.9 °F 69% 29.79 in 7.0 mi WNW 18.4 mph 29.9 mph 0.00 in Snow Light Snow
6:53 AM 28.0 °F 15.7 °F 19.9 °F 72% 29.85 in 5.0 mi West 17.3 mph 27.6 mph 0.00 in Snow Light Snow
7:09 AM 28.0 °F 16.1 °F 21.0 °F 75% 29.80 in 1.8 mi WNW 16.1 mph 21.9 mph 0.00 in Snow Light Snow
7:18 AM 28.0 °F 18.1 °F 21.0 °F 75% 29.80 in 3.0 mi WNW 11.5 mph - 0.00 in Snow Light Snow
7:37 AM 28.0 °F 17.5 °F 21.0 °F 75% 29.80 in 2.0 mi West 12.7 mph 20.7 mph 0.00 in Snow Light Snow
7:50 AM 28.4 °F 18.5 °F 21.2 °F 74% 29.80 in 4.0 mi West 11.5 mph - 0.00 in Snow Light Snow
7:53 AM 28.0 °F 16.5 °F 21.0 °F 75% 29.86 in 1.5 mi West 15.0 mph 21.9 mph 0.00 in Snow Light Snow
8:01 AM 28.0 °F 18.1 °F 21.0 °F 75% 29.81 in 0.5 mi West 11.5 mph 21.9 mph 0.00 in Snow Snow
8:11 AM 28.0 °F 18.6 °F 21.9 °F 78% 29.81 in 0.5 mi West 10.4 mph - 0.00 in Snow Snow
8:19 AM 28.0 °F 18.1 °F 21.9 °F 78% 29.81 in 0.5 mi West 11.5 mph 19.6 mph 0.00 in Snow Snow
8:23 AM 28.0 °F 18.6 °F 21.9 °F 78% 29.81 in 1.0 mi West 10.4 mph 19.6 mph 0.00 in Snow Light Snow
8:32 AM 28.0 °F 18.6 °F 21.9 °F 78% 29.81 in 2.0 mi West 10.4 mph - 0.00 in Snow Light Snow
8:42 AM 28.0 °F 18.6 °F 21.9 °F 78% 29.81 in 1.2 mi West 10.4 mph 18.4 mph 0.00 in Snow Light Snow
8:53 AM 28.0 °F 18.6 °F 21.9 °F 78% 29.87 in 1.0 mi West 10.4 mph - 0.00 in Snow Light Snow
9:01 AM 28.0 °F 16.5 °F 21.9 °F 78% 29.81 in 0.8 mi West 15.0 mph 19.6 mph 0.00 in Snow Light Snow
9:53 AM 28.0 °F 16.1 °F 23.0 °F 81% 29.88 in 1.0 mi West 16.1 mph 20.7 mph 0.00 in Snow Light Snow
10:14 AM 28.0 °F 17.0 °F 21.9 °F 78% 29.83 in 0.8 mi West 13.8 mph 21.9 mph 0.00 in Snow Light Snow
10:34 AM 28.0 °F 16.1 °F 21.9 °F 78% 29.83 in 1.0 mi West 16.1 mph 25.3 mph 0.00 in Snow Light Snow
10:48 AM 28.4 °F 19.1 °F 21.2 °F 74% 29.83 in 0.8 mi West 10.4 mph - 0.00 in Snow Light Snow
10:53 AM 28.0 °F 18.1 °F 23.0 °F 81% 29.89 in 0.8 mi West 11.5 mph - 0.00 in Snow Light Snow
11:06 AM 28.0 °F 17.0 °F 23.0 °F 81% 29.83 in 0.2 mi West 13.8 mph 20.7 mph 0.00 in Snow Heavy Snow
11:18 AM 28.0 °F 18.1 °F 23.0 °F 81% 29.83 in 0.2 mi West 11.5 mph 21.9 mph 0.00 in Snow Heavy Snow
11:30 AM 28.0 °F 17.5 °F 23.0 °F 81% 29.83 in 1.0 mi West 12.7 mph - 0.00 in Snow Light Snow
11:46 AM 28.0 °F 17.0 °F 23.0 °F 81% 29.82 in 1.2 mi West 13.8 mph 21.9 mph 0.00 in Snow Light Snow
11:48 AM 28.4 °F 17.0 °F 23.0 °F 80% 29.82 in 0.8 mi West 15.0 mph 21.9 mph 0.00 in Snow Light Snow
11:53 AM 28.0 °F 15.7 °F 23.0 °F 81% 29.88 in 0.5 mi West 17.3 mph 24.2 mph 0.00 in Snow Snow
12:26 PM 28.9 °F 19.8 °F 23.0 °F 78% 29.81 in 1.0 mi West 10.4 mph - 0.00 in Snow Light Snow
12:51 PM 28.4 °F 16.6 °F 23.0 °F 80% 29.81 in 0.8 mi West 16.1 mph 27.6 mph 0.00 in Snow Light Snow
12:53 PM 28.9 °F 16.5 °F 23.0 °F 78% 29.87 in 0.8 mi West 18.4 mph 27.6 mph 0.00 in Snow Light Snow
1:01 PM 28.9 °F 18.6 °F 23.0 °F 78% 29.81 in 1.0 mi West 12.7 mph 27.6 mph 0.00 in Snow Light Snow
1:19 PM 28.9 °F 18.6 °F 23.0 °F 78% 29.81 in 0.8 mi WNW 12.7 mph 26.5 mph 0.00 in Snow Light Snow
1:22 PM 28.9 °F 17.7 °F 23.0 °F 78% 29.81 in 0.8 mi WNW 15.0 mph 26.5 mph 0.00 in Snow Light Snow
1:34 PM 28.9 °F 18.6 °F 23.0 °F 78% 29.81 in 1.5 mi WNW 12.7 mph 21.9 mph 0.00 in Snow Light Snow
1:53 PM 28.9 °F 18.2 °F 23.0 °F 78% 29.88 in 0.8 mi WNW 13.8 mph 24.2 mph 0.00 in Snow Light Snow
2:02 PM 28.9 °F 17.3 °F 21.9 °F 75% 29.82 in 1.8 mi West 16.1 mph 24.2 mph 0.00 in Snow Light Snow
2:06 PM 28.9 °F 17.3 °F 21.9 °F 75% 29.82 in 3.0 mi WNW 16.1 mph 24.2 mph 0.00 in Snow Light Snow
2:10 PM 28.9 °F 18.2 °F 21.9 °F 75% 29.82 in 2.5 mi WNW 13.8 mph 23.0 mph 0.00 in Snow Light Snow
2:12 PM 28.9 °F 17.7 °F 21.9 °F 75% 29.82 in 1.8 mi West 15.0 mph - 0.00 in Snow Light Snow
2:26 PM 28.9 °F 17.7 °F 23.0 °F 78% 29.83 in 0.5 mi WNW 15.0 mph 24.2 mph 0.00 in Snow Snow
2:28 PM 28.0 °F 18.6 °F 23.0 °F 81% 29.83 in 0.5 mi WNW 10.4 mph - 0.00 in Snow Snow
2:36 PM 28.0 °F 17.0 °F 24.1 °F 85% 29.82 in 0.2 mi WNW 13.8 mph 21.9 mph 0.00 in Fog , Snow Snow
2:39 PM 28.0 °F 18.1 °F 24.1 °F 85% 29.82 in 0.5 mi West 11.5 mph 21.9 mph 0.00 in Fog , Snow Light Snow
2:50 PM 28.4 °F 18.0 °F 23.0 °F 80% 29.82 in 1.5 mi West 12.7 mph 24.2 mph 0.00 in Snow Light Snow
2:53 PM 28.9 °F 16.1 °F 23.0 °F 78% 29.89 in 1.2 mi West 19.6 mph 32.2 mph 0.00 in Snow Light Snow
3:02 PM 28.9 °F 16.9 °F 21.9 °F 75% 29.83 in 3.0 mi WNW 17.3 mph 32.2 mph 0.00 in Snow Light Snow
3:17 PM 28.9 °F 16.9 °F 21.0 °F 72% 29.83 in 1.8 mi WNW 17.3 mph 28.8 mph 0.00 in Snow Light Snow
3:38 PM 28.9 °F 19.8 °F 21.9 °F 75% 29.84 in 3.0 mi WNW 10.4 mph - 0.00 in Snow Light Snow
3:53 PM 28.9 °F 16.9 °F 21.0 °F 72% 29.91 in 6.0 mi West 17.3 mph 24.2 mph 0.00 in Snow Light Snow
4:33 PM 28.0 °F 15.7 °F 21.0 °F 75% 29.86 in 1.8 mi West 17.3 mph 26.5 mph 0.00 in Snow Light Snow
4:53 PM 28.0 °F 16.1 °F 21.9 °F 78% 29.92 in 0.8 mi WNW 16.1 mph 20.7 mph 0.00 in Snow Light Snow
5:04 PM 27.0 °F 16.1 °F 21.9 °F 81% 29.86 in 0.8 mi WNW 12.7 mph - 0.00 in Snow Light Snow
5:16 PM 27.0 °F 16.7 °F 21.9 °F 81% 29.86 in 2.0 mi WNW 11.5 mph - 0.00 in Snow Light Snow
5:23 PM 27.0 °F 16.1 °F 21.9 °F 81% 29.86 in 3.0 mi West 12.7 mph 20.7 mph 0.00 in Snow Light Snow
5:53 PM 27.0 °F 16.1 °F 21.0 °F 78% 29.94 in 4.0 mi West 12.7 mph 20.7 mph 0.00 in Snow Light Snow
6:53 PM 27.0 °F 16.1 °F 21.0 °F 78% 29.94 in 7.0 mi West 12.7 mph 21.9 mph 0.00 in Snow Light Snow
7:53 PM 27.0 °F 17.3 °F 21.0 °F 78% 29.95 in 7.0 mi West 10.4 mph - 0.00 in Snow Light Snow
8:53 PM 27.0 °F 16.7 °F 19.9 °F 75% 29.96 in 9.0 mi WNW 11.5 mph 20.7 mph 0.00 in   Overcast
9:53 PM 27.0 °F 16.1 °F 17.1 °F 66% 29.96 in 9.0 mi WNW 12.7 mph - 0.00 in   Overcast
10:53 PM 27.0 °F 16.1 °F 18.0 °F 69% 29.96 in 10.0 mi West 12.7 mph - 0.00 in   Overcast
11:53 PM 27.0 °F 19.5 °F 18.0 °F 69% 29.95 in 10.0 mi WNW 6.9 mph 18.4 mph N/A   Overcast